DW1274 Weather Reports


time (UTC)temp
C
wind
direction
speed
KPH
gust
KPH
rain 1hr
cm
rain 24hr
cm
rain mn
cm
humidity
%
barometer
mb
20260510100630 21 0 0.0 1.6 0.00 0.43 0.00 99 1013.2
20260510100130 21 311 0.0 1.6 0.00 0.43 0.00 99 1013.1
20260510095630 21 0 0.0 0.0 0.00 0.43 0.00 99 1013.1
20260510095130 21 0 0.0 0.0 0.00 0.43 0.00 99 1013.0
20260510094629 21 0 0.0 0.0 0.00 0.43 0.00 99 1012.9
20260510094133 21 0 0.0 0.0 0.00 0.43 0.00 99 1012.9
20260510093629 21 0 0.0 0.0 0.00 0.43 0.00 99 1012.9
20260510093130 21 0 0.0 1.6 0.00 0.43 0.00 99 1012.8
20260510092630 21 0 0.0 1.6 0.00 0.43 0.00 99 1012.8
20260510091621 21 0 0.0 1.6 0.00 0.43 0.00 99 1012.6
20260510091118 21 0 1.6 3.2 0.00 0.43 0.00 99 1012.5
20260510090618 21 180 3.2 3.2 0.00 0.43 0.00 99 1012.4
20260510090119 21 88 1.6 3.2 0.00 0.43 0.00 99 1012.3
20260510085618 21 90 0.0 3.2 0.00 0.43 0.00 99 1012.4
20260510085119 21 0 0.0 1.6 0.00 0.43 0.00 99 1012.4
20260510084618 21 0 0.0 0.0 0.00 0.43 0.00 99 1012.4
20260510083609 21 0 0.0 3.2 0.00 0.43 0.00 99 1012.3
20260510083109 21 0 1.6 3.2 0.00 0.43 0.00 99 1012.2
20260510082603 21 344 1.6 3.2 0.00 0.43 0.00 99 1012.2
20260510082104 21 0 1.6 4.8 0.00 0.43 0.00 99 1012.1
20260510081103 21 90 1.6 4.8 0.00 0.43 0.00 99 1012.0
20260510080603 21 90 0.0 3.2 0.00 0.43 0.00 99 1012.1
20260510080103 21 0 0.0 0.0 0.00 0.43 0.00 99 1012.1
20260510075603 21 0 0.0 3.2 0.00 0.43 0.00 99 1012.1
20260510075106 21 0 0.0 3.2 0.00 0.43 0.00 99 1012.2
20260510074603 21 0 0.0 3.2 0.00 0.43 0.00 99 1012.2
20260510074105 21 0 0.0 0.0 0.00 0.43 0.00 99 1012.3
20260510073603 21 0 0.0 1.6 0.00 0.43 0.00 99 1012.3
20260510073103 21 0 0.0 1.6 0.00 0.43 0.00 99 1012.3
20260510072601 21 0 0.0 1.6 0.00 0.43 0.00 99 1012.2
20260510072102 21 0 0.0 1.6 0.00 0.43 0.00 99 1012.1
20260510071102 21 0 0.0 0.0 0.00 0.43 0.00 99 1012.1
20260510070602 21 0 0.0 1.6 0.00 0.43 0.00 99 1012.2
20260510070105 21 62 0.0 1.6 0.00 0.43 0.00 99 1012.1
20260510064626 21 0 0.0 1.6 0.00 0.43 0.00 99 1012.1
20260510064102 21 0 0.0 1.6 0.00 0.43 0.00 99 1012.2
20260510063602 21 170 0.0 1.6 0.00 0.43 0.00 99 1012.2
20260510063102 21 0 0.0 3.2 0.00 0.43 0.00 99 1012.2
20260510062603 21 0 0.0 3.2 0.00 0.43 0.00 99 1012.3
20260510061601 21 0 1.6 3.2 0.00 0.43 0.00 99 1012.3
20260510061102 21 197 0.0 3.2 0.00 0.43 0.00 99 1012.4
20260510060101 21 0 1.6 6.4 0.00 0.43 0.00 99 1012.4
20260510055602 21 110 1.6 6.4 0.00 0.43 0.00 99 1012.4
20260510055102 21 0 0.0 3.2 0.00 0.43 0.00 99 1012.5
20260510054602 21 190 0.0 4.8 0.00 0.43 0.00 99 1012.7
20260510054102 21 0 0.0 4.8 0.00 0.43 0.00 99 1012.7
20260510053101 21 101 0.0 3.2 0.00 0.43 0.00 99 1012.8
20260510052603 21 185 0.0 3.2 0.00 0.43 0.00 99 1012.9
20260510052102 21 0 1.6 4.8 0.00 0.43 0.00 100 1012.9
20260510051601 21 151 1.6 4.8 0.00 0.43 0.00 100 1013.0
20260510051102 20 167 0.0 3.2 0.00 0.43 0.00 100 1013.0
20260510050602 20 178 0.0 3.2 0.00 0.43 0.00 100 1013.1
20260510045607 20 0 0.0 0.0 0.00 0.69 0.00 100 1013.4
20260510045103 20 0 0.0 0.0 0.00 1.27 0.00 100 1013.4
20260510044601 20 0 0.0 0.0 0.00 1.27 0.00 100 1013.5
20260510044102 20 0 0.0 0.0 0.00 1.27 0.00 100 1013.5
20260510043602 20 0 0.0 0.0 0.00 1.27 0.00 100 1013.4
20260510043101 20 0 0.0 0.0 0.00 1.27 0.00 100 1013.4
20260510042602 20 0 0.0 0.0 0.00 1.27 0.00 100 1013.3
20260510042102 20 0 0.0 0.0 0.00 1.27 0.00 100 1013.3
20260510041601 20 0 0.0 0.0 0.00 1.27 0.00 100 1013.3
20260510041101 20 0 0.0 0.0 0.00 1.27 0.00 100 1013.4
20260510040602 20 0 0.0 0.0 0.00 1.27 0.00 100 1013.4
20260510035602 20 0 0.0 1.6 0.00 1.27 1.27 100 1013.4
20260510035102 20 0 0.0 0.0 0.00 1.27 1.27 100 1013.5
20260510034602 20 0 0.0 0.0 0.00 1.27 1.27 100 1013.4
20260510034100 20 0 0.0 0.0 0.00 1.27 1.27 100 1013.5
20260510033602 20 0 0.0 0.0 0.00 1.27 1.27 99 1013.5
20260510032103 20 0 0.0 3.2 0.00 1.27 1.27 99 1013.5
20260510031602 20 165 0.0 1.6 0.00 1.27 1.27 99 1013.5
20260510030601 20 0 0.0 0.0 0.00 1.27 1.27 99 1013.6
20260510025601 20 0 0.0 0.0 0.00 1.27 1.27 99 1013.5
20260510024602 21 0 0.0 0.0 0.00 1.27 1.27 99 1013.2
20260510024102 21 0 0.0 1.6 0.00 1.27 1.27 99 1013.2
20260510023602 21 0 0.0 1.6 0.00 1.27 1.27 99 1013.2
20260510023100 21 0 0.0 3.2 0.00 1.27 1.27 99 1013.0
20260510022602 21 0 1.6 4.8 0.00 1.27 1.27 99 1013.0
20260510022103 21 161 1.6 4.8 0.00 1.27 1.27 99 1012.7
20260510021101 21 0 0.0 0.0 0.00 1.27 1.27 99 1012.8
20260510020601 21 0 0.0 0.0 0.00 1.27 1.27 99 1012.7
20260510015106 21 297 1.6 3.2 0.00 1.27 1.27 99 1012.5
20260510014602 21 274 1.6 3.2 0.00 1.27 1.27 99 1012.4
20260510014102 21 285 1.6 3.2 0.00 1.27 1.27 99 1012.2
20260510013602 21 0 0.0 0.0 0.00 1.27 1.27 99 1012.1
20260510013102 21 0 1.6 3.2 0.00 1.27 1.27 99 1012.0
20260510011602 21 0 0.0 1.6 0.00 1.27 1.27 98 1012.0
20260510011104 21 0 0.0 3.2 0.00 1.27 1.27 98 1012.1
20260510010602 21 0 0.0 3.2 0.00 1.27 1.27 98 1012.2
20260510005103 21 0 0.0 1.6 0.00 1.27 1.27 98 1012.1
20260510004602 21 0 0.0 0.0 0.00 1.27 1.27 98 1012.0
20260510003602 21 0 0.0 1.6 0.00 1.27 1.27 98 1011.9
20260510003102 21 0 0.0 1.6 0.03 1.27 1.27 98 1012.0
20260510002602 21 0 0.0 1.6 0.05 1.27 1.27 98 1012.0
20260510002102 21 0 0.0 0.0 0.05 1.27 1.27 98 1012.2
20260510001603 21 0 0.0 3.2 0.05 1.27 1.27 98 1012.3
20260510001102 21 0 0.0 3.2 0.08 1.27 1.27 98 1012.3
20260510000602 21 0 0.0 1.6 0.08 1.27 1.27 97 1012.3
20260509235602 21 217 0.0 3.2 0.08 1.27 1.27 97 1012.5
20260509235102 21 0 1.6 4.8 0.08 1.27 1.27 97 1012.5
20260509234603 21 312 3.2 4.8 0.08 1.27 1.27 97 1012.5
20260509234100 21 307 1.6 4.8 0.05 1.27 1.27 97 1012.8
20260509233600 21 0 1.6 3.2 0.05 1.27 1.27 97 1012.9
20260509233101 21 232 0.0 3.2 0.05 1.24 1.24 96 1012.7
20260509232106 21 0 0.0 0.0 0.03 1.24 1.24 96 1012.5
20260509231601 21 0 0.0 1.6 0.03 1.24 1.24 96 1012.5
20260509225603 21 288 0.0 3.2 0.00 1.22 1.22 95 1012.5
20260509225101 21 0 0.0 3.2 0.00 1.22 1.22 95 1012.4
20260509224602 21 29 0.0 3.2 0.00 1.22 1.22 95 1012.4
20260509223558 21 0 1.6 6.4 0.00 1.22 1.22 95 1012.3
20260509223104 21 42 1.6 6.4 0.00 1.22 1.22 95 1012.2
20260509222059 21 34 1.6 4.8 0.00 1.22 1.22 95 1012.2
20260509221549 21 13 3.2 6.4 0.00 1.22 1.22 95 1012.2
20260509221043 21 35 3.2 6.4 0.00 1.22 1.22 95 1012.2
20260509220544 21 65 1.6 4.8 0.00 1.22 1.22 95 1012.2
20260509220044 21 15 3.2 4.8 0.00 1.22 1.22 95 1012.1
20260509215545 21 36 3.2 6.4 0.00 1.22 1.22 95 1012.1
20260509215044 21 18 3.2 6.4 0.00 1.22 1.22 95 1012.2
20260509214544 21 12 1.6 4.8 0.00 1.22 1.22 95 1012.2
20260509214044 21 18 3.2 6.4 0.00 1.22 1.22 95 1012.0
20260509213544 21 25 3.2 6.4 0.00 1.22 1.22 95 1011.9
20260509213045 21 343 4.8 9.7 0.00 1.22 1.22 95 1012.0
20260509212545 21 20 4.8 9.7 0.00 1.22 1.22 95 1011.9
20260509211543 21 324 6.4 12.9 0.00 1.22 1.22 95 1011.9
20260509211044 21 353 8.0 14.5 0.00 1.22 1.22 95 1011.9
20260509210544 21 297 6.4 14.5 0.00 1.22 1.22 96 1011.9
20260509210043 21 309 6.4 11.3 0.00 1.22 1.22 96 1011.9
20260509205543 21 339 8.0 14.5 0.00 1.22 1.22 96 1011.8
20260509204544 21 330 6.4 14.5 0.00 1.22 1.22 96 1011.8
20260509204042 21 8 6.4 12.9 0.05 1.22 1.22 96 1011.9
20260509203542 21 354 8.0 16.1 0.08 1.22 1.22 96 1011.9
20260509203043 21 324 8.0 16.1 0.10 1.22 1.22 96 1011.8
20260509202042 21 302 8.0 14.5 0.15 1.22 1.22 96 1011.9
20260509201543 22 289 6.4 17.7 0.18 1.22 1.22 96 1011.9
20260509201042 22 346 8.0 17.7 0.18 1.22 1.22 96 1012.0
20260509200542 22 303 8.0 14.5 0.18 1.22 1.22 97 1012.0
20260509195541 22 291 6.4 12.9 0.25 1.22 1.22 96 1011.8
20260509195039 23 300 6.4 12.9 0.25 1.22 1.22 97 1011.9
20260509194535 23 267 6.4 12.9 0.30 1.24 1.22 96 1012.0
20260509194035 23 300 6.4 11.3 0.28 1.22 1.17 96 1012.0
20260509193535 23 278 6.4 9.7 0.25 1.17 1.14 95 1012.0
20260509193035 23 267 4.8 9.7 0.23 1.14 1.12 95 1011.8
20260509192531 23 291 3.2 8.0 0.20 1.14 1.09 94 1011.8
20260509192030 23 167 1.6 4.8 0.18 1.12 1.07 94 1011.9
20260509191534 23 302 1.6 4.8 0.15 1.09 1.04 93 1012.0
20260509191027 24 302 0.0 3.2 0.13 1.07 1.02 92 1011.9
20260509190522 24 0 0.0 6.4 0.13 1.09 1.02 91 1012.0
20260509190023 25 0 0.0 6.4 0.10 1.07 0.99 91 1012.0
20260509185021 25 0 0.0 6.4 0.05 1.02 0.94 88 1011.7
20260509184519 25 0 3.2 11.3 0.03 0.99 0.91 86 1011.6
20260509184020 25 248 4.8 11.3 0.00 0.97 0.89 85 1011.6
20260509183521 26 298 1.6 6.4 0.00 0.97 0.89 85 1011.7
20260509183007 26 17 3.2 8.0 0.00 0.97 0.89 84 1011.7
20260509182509 26 251 3.2 8.0 0.00 0.97 0.89 84 1011.9
20260509182007 26 331 4.8 9.7 0.00 0.97 0.89 83 1011.8
20260509181506 26 310 3.2 9.7 0.00 0.97 0.89 82 1011.8
20260509181005 26 188 1.6 8.0 0.00 0.97 0.89 82 1011.8
20260509180006 26 0 4.8 14.5 0.00 0.97 0.89 83 1011.9
20260509175002 26 295 4.8 11.3 0.00 0.99 0.89 81 1012.1
20260509174503 26 334 4.8 12.9 0.00 0.99 0.89 81 1012.1
20260509174004 26 280 3.2 12.9 0.00 0.99 0.89 82 1012.1
20260509173503 26 0 4.8 12.9 0.00 0.99 0.89 83 1012.2
20260509173003 26 6 6.4 22.5 0.00 0.99 0.89 83 1012.3
20260509172503 26 324 3.2 22.5 0.00 0.99 0.89 83 1012.3
20260509172003 26 270 1.6 12.9 0.00 0.99 0.89 83 1012.2
20260509171502 26 258 1.6 8.0 0.00 0.99 0.89 82 1012.2
20260509171000 26 276 3.2 9.7 0.00 0.99 0.89 83 1012.2
20260509170500 26 36 3.2 11.3 0.00 0.99 0.89 83 1012.2
20260509170001 25 327 3.2 11.3 0.00 0.99 0.89 85 1012.2
20260509165501 25 337 3.2 11.3 0.00 0.99 0.89 85 1012.3
20260509164501 25 253 1.6 6.4 0.00 0.99 0.89 86 1012.3
20260509164001 25 0 1.6 8.0 0.00 0.99 0.89 86 1012.4
20260509163500 24 0 1.6 8.0 0.00 0.99 0.89 88 1012.4
20260509163001 24 0 3.2 8.0 0.00 1.07 0.89 89 1012.4
20260509162501 24 34 1.6 6.4 0.00 1.07 0.89 88 1012.3
20260509162001 23 317 1.6 6.4 0.00 1.07 0.89 90 1012.5
20260509161501 23 138 3.2 6.4 0.00 1.07 0.89 89 1012.6
20260509161002 23 0 3.2 6.4 0.00 1.07 0.89 90 1012.6
20260509160501 23 100 3.2 6.4 0.00 1.07 0.89 90 1012.6
20260509160009 23 125 3.2 6.4 0.00 1.07 0.89 90 1012.5
20260509155500 23 73 3.2 6.4 0.00 1.07 0.89 89 1012.6
20260509155000 23 72 1.6 4.8 0.00 1.07 0.89 89 1012.7
20260509154500 23 0 1.6 6.4 0.00 1.07 0.89 90 1012.8
20260509154002 23 235 1.6 6.4 0.00 1.07 0.89 90 1012.6
20260509153001 23 0 3.2 9.7 0.00 1.09 0.89 90 1012.4
20260509152501 23 30 4.8 11.3 0.00 1.09 0.89 90 1012.5
20260509152001 23 17 6.4 11.3 0.00 1.09 0.89 90 1012.5
20260509151505 23 354 4.8 9.7 0.00 1.09 0.89 90 1012.6
20260509151001 23 2 3.2 6.4 0.00 1.09 0.89 89 1012.6
20260509150501 23 30 1.6 6.4 0.00 1.09 0.89 89 1012.8
20260509145501 23 0 1.6 6.4 0.00 1.09 0.89 89 1012.9
20260509145001 23 26 1.6 6.4 0.00 1.09 0.89 89 1012.8
20260509144001 23 155 1.6 4.8 0.00 1.09 0.89 88 1012.7
20260509143501 22 38 1.6 6.4 0.00 1.09 0.89 89 1012.8
20260509143002 22 32 3.2 6.4 0.00 1.09 0.89 91 1012.8
20260509142501 22 59 1.6 6.4 0.00 1.09 0.89 91 1012.7
20260509142001 22 98 1.6 8.0 0.00 1.09 0.89 90 1012.7
20260509141501 22 26 1.6 8.0 0.00 1.09 0.89 90 1012.7
20260509141001 22 331 0.0 6.4 0.00 1.07 0.86 91 1012.7
20260509140501 21 0 0.0 3.2 0.00 1.07 0.86 91 1012.6
20260509140000 21 0 1.6 3.2 0.00 1.07 0.86 91 1012.5
20260509135501 22 0 0.0 3.2 0.00 1.07 0.86 90 1012.5
20260509135002 21 0 0.0 3.2 0.00 1.07 0.86 91 1012.6
20260509134500 21 0 0.0 3.2 0.00 1.07 0.86 91 1012.6
20260509134001 21 42 0.0 4.8 0.00 1.07 0.86 91 1012.6
20260509133001 21 321 3.2 4.8 0.00 1.07 0.86 92 1012.7
20260509132501 21 321 3.2 4.8 0.00 1.07 0.86 92 1012.6
20260509132002 21 291 3.2 6.4 0.00 1.07 0.86 92 1012.5
20260509131502 21 320 4.8 8.0 0.00 1.07 0.86 92 1012.5
20260509131001 21 280 4.8 8.0 0.00 1.07 0.86 92 1012.5
20260509130503 21 341 4.8 6.4 0.00 1.07 0.86 92 1012.5
20260509130002 21 351 3.2 6.4 0.00 1.07 0.86 92 1012.4
20260509125502 21 280 3.2 6.4 0.00 1.07 0.86 92 1012.4
20260509125001 21 305 3.2 4.8 0.00 1.07 0.86 92 1012.4
20260509124502 21 323 1.6 6.4 0.00 1.07 0.86 93 1012.4
20260509123502 21 319 3.2 8.0 0.00 1.07 0.86 95 1012.3
20260509122502 20 6 6.4 9.7 0.00 1.07 0.86 97 1012.0
20260509122001 20 353 6.4 9.7 0.00 1.07 0.86 98 1011.9
20260509121502 20 10 4.8 6.4 0.00 1.07 0.86 99 1011.9
20260509121003 20 356 1.6 6.4 0.00 1.07 0.86 99 1011.8
20260509120501 20 0 1.6 6.4 0.00 1.07 0.86 99 1011.9
20260509120002 20 0 3.2 6.4 0.00 1.07 0.86 100 1011.8
20260509115502 19 349 3.2 6.4 0.00 1.07 0.86 100 1011.9
20260509114503 19 315 4.8 9.7 0.00 1.07 0.86 100 1012.0
20260509114001 18 289 6.4 9.7 0.00 1.07 0.86 100 1012.0
20260509113502 18 321 3.2 6.4 0.00 1.07 0.86 100 1011.7
20260509113002 18 312 1.6 4.8 0.00 1.07 0.86 100 1011.4
20260509112002 18 0 1.6 3.2 0.00 1.07 0.86 100 1011.0
20260509111502 18 183 1.6 3.2 0.00 1.07 0.86 100 1011.0
20260509111000 18 0 1.6 3.2 0.00 1.07 0.86 100 1011.0
20260509110503 18 204 1.6 3.2 0.00 1.07 0.86 100 1010.9
20260509110002 18 0 1.6 3.2 0.00 1.07 0.86 100 1010.8
20260509105502 18 0 1.6 3.2 0.00 1.07 0.86 100 1010.7
20260509105001 18 197 3.2 4.8 0.00 1.07 0.86 100 1010.7
20260509104500 18 200 4.8 4.8 0.00 1.07 0.86 100 1010.5
20260509104001 18 210 3.2 6.4 0.00 1.07 0.86 100 1010.3
20260509103502 18 194 3.2 6.4 0.00 1.07 0.86 100 1010.2
20260509103003 18 206 3.2 4.8 0.00 1.07 0.86 100 1010.1
20260509102001 18 183 3.2 4.8 0.00 1.07 0.86 100 1010.3
20260509101502 18 182 3.2 4.8 0.00 1.07 0.86 100 1010.4